User: anonymous   Login
Location: Newark
(8.3667°S, 17.0167°E)
Time: 23:59:22
(UTC+00:00)
Language:

N. Korean satellite - Orbit

View from above orbital plane
View from above orbital plane
View from above satellite
View from above satellite

Ground track
Ground track

The orbit data is extracted from the following two-line orbital elements,

1 39026U 12072A   19348.77113574  .00000539  00000-0  21868-4 0  9998
2 39026  97.2160 346.2144 0037543 181.9571 178.1528 15.28232611388940
Epoch (UTC): 14 December 2019 18:30:26
Eccentricity: 0.0037543
inclination: 97.2160°
perigee height: 455 km
apogee height: 507 km
right ascension of ascending node: 346.2144°
argument of perigee: 181.9571°
revolutions per day: 15.28232611
mean anomaly at epoch: 178.1528°
orbit number at epoch: 38894

The dashed part of the orbit path shows where the satellite is in the earth's shadow,  

DLR